Hollywood, MD

10:02 PM EST on December 04, 2016 (GMT -0500)
Leonardtown

Weather History for K2W6 - May, 2013

Change the Weather History Date:

Friday, May 31, 2013

  Actual Average (KNHK) Record (KNHK)
Temperature  
Mean Temperature 78 °F -  
Max Temperature 89 °F 80 °F 96 °F (2011)
Min Temperature 68 °F 63 °F 48 °F (1984)
Cooling Degree Days 14    
Growing Degree Days 28 (Base 50)    
Moisture  
Dew Point 62 °F    
Average Humidity 60    
Maximum Humidity 83    
Minimum Humidity 36    
Precipitation  
Precipitation 0.00 in - - ()
Sea Level Pressure  
Sea Level Pressure 30.14 in    
Wind  
Wind Speed 5 mph (SSW)    
Max Wind Speed 14 mph    
Max Gust Speed 20 mph    
Visibility 10 miles    
Events      
Averages and records for this station are not official NWS values.
T = Trace of Precipitation, MM = Missing Value Source: NWS Daily Summary

Daily Weather History Graph

Daily Weather History Graph

Search for Another Location

Airport or City:

Trip Planner

Search our weather history database for the weather conditions in past years. The results will help you decide how hot, cold, wet, or windy it might be!

Date:

Astronomy

May. 31, 2013 Rise Set
Actual Time 5:44 AM EDT 8:23 PM EDT
Civil Twilight 5:13 AM EDT 8:54 PM EDT
Nautical Twilight 4:35 AM EDT 9:33 PM EDT
Astronomical Twilight 3:51 AM EDT 10:16 PM EDT
Moon 1:00 AM EDT (5/31) 12:53 PM EDT (5/31)
Length of Visible Light 15h 40m
Length of Day
14h 38m
Waning Gibbous, 51% of the Moon is Illuminated
May 31
Waning Gibbous
May 31
Last Quarter
Jun 8
New
Jun 16
First Quarter
Jun 23
Full

Hourly Weather History & Observations

Time (EDT) Temp. Heat Index Dew Point Humidity Pressure Visibility Wind Dir Wind Speed Gust Speed Precip Events Conditions
12:03 AM 73.4 °F - 64.4 °F 73% 30.17 in 10.0 mi SW 3.5 mph - N/A   Clear
12:23 AM 73.4 °F - 64.4 °F 73% 30.17 in 10.0 mi SSW 3.5 mph - N/A   Clear
12:43 AM 71.6 °F - 64.4 °F 78% 30.16 in 10.0 mi Calm Calm - N/A   Clear
1:03 AM 71.6 °F - 64.4 °F 78% 30.17 in 10.0 mi Calm Calm - N/A   Clear
1:23 AM 69.8 °F - 64.4 °F 83% 30.17 in 10.0 mi Calm Calm - N/A   Clear
1:43 AM 69.8 °F - 64.4 °F 83% 30.17 in 10.0 mi Calm Calm - N/A   Clear
2:03 AM 69.8 °F - 64.4 °F 83% 30.16 in 10.0 mi WSW 3.5 mph - N/A   Clear
2:24 AM 69.8 °F - 62.6 °F 78% 30.16 in 10.0 mi WSW 3.5 mph - N/A   Clear
2:44 AM 69.8 °F - 64.4 °F 83% 30.16 in 10.0 mi SW 4.6 mph - N/A   Clear
3:04 AM 69.8 °F - 64.4 °F 83% 30.16 in 10.0 mi SW 4.6 mph - N/A   Clear
3:24 AM 69.8 °F - 62.6 °F 78% 30.16 in 10.0 mi SW 4.6 mph - N/A   Clear
3:44 AM 69.8 °F - 62.6 °F 78% 30.16 in 10.0 mi SW 4.6 mph - N/A   Clear
4:04 AM 69.8 °F - 62.6 °F 78% 30.17 in 10.0 mi SW 4.6 mph - N/A   Clear
4:24 AM 69.8 °F - 62.6 °F 78% 30.17 in 10.0 mi SW 5.8 mph - N/A   Clear
4:44 AM 69.8 °F - 62.6 °F 78% 30.17 in 10.0 mi SW 4.6 mph - N/A   Clear
5:04 AM 68.0 °F - 62.6 °F 83% 30.18 in 10.0 mi South 5.8 mph - N/A   Clear
5:24 AM 68.0 °F - 62.6 °F 83% 30.18 in 10.0 mi Calm Calm - N/A   Clear
5:44 AM 68.0 °F - 62.6 °F 83% 30.18 in 10.0 mi Calm Calm - N/A   Clear
6:04 AM 68.0 °F - 62.6 °F 83% 30.19 in 10.0 mi SW 3.5 mph - N/A   Clear
6:24 AM 68.0 °F - 62.6 °F 83% 30.19 in 10.0 mi SSW 4.6 mph - N/A   Clear
6:44 AM 69.8 °F - 62.6 °F 78% 30.19 in 10.0 mi SW 5.8 mph - N/A   Clear
7:04 AM 69.8 °F - 62.6 °F 78% 30.19 in 10.0 mi SW 4.6 mph - N/A   Clear
7:24 AM 71.6 °F - 62.6 °F 73% 30.19 in 10.0 mi SSW 5.8 mph - N/A   Clear
7:44 AM 71.6 °F - 62.6 °F 73% 30.19 in 10.0 mi SSW 4.6 mph - N/A   Clear
8:04 AM 73.4 °F - 62.6 °F 69% 30.19 in 10.0 mi SSW 6.9 mph - N/A   Clear
8:24 AM 75.2 °F - 62.6 °F 65% 30.19 in 10.0 mi SSW 8.1 mph - N/A   Clear
8:44 AM 77.0 °F - 62.6 °F 61% 30.19 in 10.0 mi SW 10.4 mph - N/A   Clear
9:04 AM 77.0 °F - 62.6 °F 61% 30.19 in 10.0 mi SW 9.2 mph - N/A   Clear
9:24 AM 78.8 °F - 62.6 °F 57% 30.19 in 10.0 mi SSW 8.1 mph - N/A   Clear
9:44 AM 78.8 °F - 62.6 °F 57% 30.18 in 10.0 mi SW 6.9 mph - N/A   Clear
10:04 AM 80.6 °F 81.8 °F 62.6 °F 54% 30.18 in - SSW 9.2 mph - N/A   Clear
10:24 AM 80.6 °F 81.8 °F 62.6 °F 54% 30.17 in 10.0 mi SW 10.4 mph - N/A   Clear
10:45 AM 82.4 °F 82.9 °F 60.8 °F 48% 30.17 in 10.0 mi WSW 10.4 mph 16.1 mph N/A   Clear
11:05 AM 82.4 °F 83.4 °F 62.6 °F 51% 30.17 in 10.0 mi WSW 10.4 mph - N/A   Clear
11:25 AM 84.2 °F 85.0 °F 62.6 °F 48% 30.18 in 10.0 mi SSW 6.9 mph - N/A   Clear
11:45 AM 86.0 °F 86.1 °F 60.8 °F 43% 30.17 in 10.0 mi SSW 6.9 mph - N/A   Clear
12:05 PM 86.0 °F 86.1 °F 60.8 °F 43% 30.17 in 10.0 mi SSW 11.5 mph 17.3 mph N/A   Clear
12:25 PM 86.0 °F 86.1 °F 60.8 °F 43% 30.17 in 10.0 mi SSW 9.2 mph 19.6 mph N/A   Clear
12:45 PM 86.0 °F 86.1 °F 60.8 °F 43% 30.16 in 10.0 mi SSW 10.4 mph 16.1 mph N/A   Clear
1:05 PM 86.0 °F 86.1 °F 60.8 °F 43% 30.16 in 10.0 mi SSW 9.2 mph 18.4 mph N/A   Clear
1:25 PM 87.8 °F 87.6 °F 60.8 °F 40% 30.15 in 10.0 mi South 10.4 mph 16.1 mph N/A   Clear
1:45 PM 87.8 °F 87.6 °F 60.8 °F 40% 30.14 in 10.0 mi SW 12.7 mph 17.3 mph N/A   Clear
2:05 PM 87.8 °F 87.6 °F 60.8 °F 40% 30.14 in 10.0 mi SW 9.2 mph 18.4 mph N/A   Clear
2:25 PM 87.8 °F 87.6 °F 60.8 °F 40% 30.13 in 10.0 mi SSW 11.5 mph - N/A   Clear
2:45 PM 87.8 °F 87.6 °F 60.8 °F 40% 30.13 in 10.0 mi SSW 8.1 mph 16.1 mph N/A   Clear
3:05 PM 89.6 °F 89.5 °F 60.8 °F 38% 30.12 in 10.0 mi SW 13.8 mph 19.6 mph N/A   Clear
3:25 PM 89.6 °F 89.5 °F 60.8 °F 38% 30.12 in 10.0 mi SW 9.2 mph 17.3 mph N/A   Clear
3:45 PM 89.6 °F 89.5 °F 60.8 °F 38% 30.12 in 10.0 mi SW 12.7 mph 17.3 mph N/A   Clear
4:05 PM 89.6 °F 88.9 °F 59.0 °F 36% 30.11 in 10.0 mi SSW 9.2 mph 18.4 mph N/A   Clear
4:25 PM 87.8 °F 87.6 °F 60.8 °F 40% 30.10 in 10.0 mi SSW 9.2 mph 19.6 mph N/A   Clear
4:45 PM 87.8 °F 87.6 °F 60.8 °F 40% 30.09 in 10.0 mi SSW 11.5 mph - N/A   Clear
5:05 PM 87.8 °F 87.6 °F 60.8 °F 40% 30.09 in 10.0 mi SSW 9.2 mph - N/A   Clear
5:25 PM 87.8 °F 87.6 °F 60.8 °F 40% 30.08 in 10.0 mi SSW 5.8 mph - N/A   Clear
5:45 PM 87.8 °F 87.6 °F 60.8 °F 40% 30.08 in 10.0 mi SSW 9.2 mph - N/A   Clear
6:05 PM 87.8 °F 87.6 °F 60.8 °F 40% 30.07 in 10.0 mi South 11.5 mph 16.1 mph N/A   Clear
6:25 PM 86.0 °F 86.1 °F 60.8 °F 43% 30.07 in 10.0 mi SSW 8.1 mph - N/A   Clear
6:45 PM 86.0 °F 86.1 °F 60.8 °F 43% 30.08 in 10.0 mi South 4.6 mph - N/A   Clear
7:05 PM 86.0 °F 86.1 °F 60.8 °F 43% 30.08 in 10.0 mi South 5.8 mph - N/A   Clear
7:25 PM 84.2 °F 84.4 °F 60.8 °F 45% 30.08 in 10.0 mi South 4.6 mph - N/A   Clear
7:46 PM 82.4 °F 83.4 °F 62.6 °F 51% 30.08 in 10.0 mi South 3.5 mph - N/A   Clear
8:06 PM 80.6 °F 81.8 °F 62.6 °F 54% 30.08 in 10.0 mi South 3.5 mph - N/A   Clear
8:26 PM 80.6 °F 81.8 °F 62.6 °F 54% 30.08 in 10.0 mi South 4.6 mph - N/A   Clear
8:41 PM 80.6 °F 81.8 °F 62.6 °F 54% 30.08 in 10.0 mi South 3.5 mph - N/A   Clear
9:06 PM 78.8 °F - 62.6 °F 57% 30.08 in 10.0 mi Calm Calm - N/A   Clear
9:26 PM 77.0 °F - 64.4 °F 65% 30.09 in 10.0 mi Calm Calm - N/A   Clear
9:46 PM 75.2 °F - 64.4 °F 69% 30.09 in 10.0 mi SSE 3.5 mph - N/A   Clear
10:06 PM 75.2 °F - 62.6 °F 65% 30.09 in 10.0 mi South 3.5 mph - N/A   Clear
10:26 PM 73.4 °F - 62.6 °F 69% 30.10 in 10.0 mi Calm Calm - N/A   Clear
10:46 PM 75.2 °F - 60.8 °F 61% 30.09 in 7.0 mi Calm Calm - N/A   Clear
11:06 PM 75.2 °F - 60.8 °F 61% 30.09 in 10.0 mi Calm Calm - N/A   Clear
11:26 PM 75.2 °F - 60.8 °F 61% 30.09 in 10.0 mi SSW 3.5 mph - N/A   Clear
11:46 PM 75.2 °F - 60.8 °F 61% 30.09 in 10.0 mi SSW 3.5 mph - N/A   Clear